This is the latest recevied weather packets stored in our database for station/object I2HLY-4. If no packets are shown the sender has not sent any weather packets the latest 10 day(s).
| Time | Temp. | Humidity | Pressure | Rain* | Wind** | Luminosity | Snow |
|---|---|---|---|---|---|---|---|
| 1777876343 | 11.11° C | 67% | 1019.7 hPa | 0 mm | - | - | - |
| 1777875438 | 11.11° C | 68% | 1019.8 hPa | 0 mm | - | - | - |
| 1777874532 | 11.11° C | 71% | 1019.6 hPa | 0 mm | - | - | - |
| 1777873645 | 10.56° C | 72% | 1019.1 hPa | 0 mm | - | - | - |
| 1777872740 | 10.56° C | 75% | 1019 hPa | 0 mm | - | - | - |
| 1777871833 | 10.56° C | 70% | 1018.9 hPa | 0 mm | - | - | - |
| 1777870946 | 10.56° C | 66% | 1018.7 hPa | 0 mm | - | - | - |
| 1777870043 | 10.56° C | 64% | 1018.8 hPa | 0 mm | - | - | - |
| 1777869136 | 10° C | 65% | 1018.4 hPa | 0 mm | - | - | - |
| 1777868232 | 10° C | 65% | 1018.6 hPa | 0 mm | - | - | - |
| 1777867343 | 10° C | 65% | 1018.6 hPa | 0 mm | - | - | - |
| 1777866434 | 10° C | 66% | 1018.5 hPa | 0 mm | - | - | - |
| 1777865552 | 10° C | 65% | 1018.5 hPa | 0 mm | - | - | - |
| 1777864643 | 10° C | 65% | 1018.6 hPa | 0 mm | - | - | - |
| 1777863736 | 10.56° C | 64% | 1018.6 hPa | 0 mm | - | - | - |
| 1777862852 | 10.56° C | 61% | 1018.7 hPa | 0 mm | - | - | - |
| 1777861947 | 10.56° C | 61% | 1018.7 hPa | 0 mm | - | - | - |
| 1777861043 | 10.56° C | 62% | 1018.8 hPa | 0 mm | - | - | - |
| 1777860138 | 10.56° C | 64% | 1018.8 hPa | 0 mm | - | - | - |
| 1777859232 | 11.11° C | 63% | 1018.7 hPa | 0 mm | - | - | - |
| 1777858336 | 11.11° C | 62% | 1018.9 hPa | 0 mm | - | - | - |
| 1777857445 | 11.11° C | 63% | 1019 hPa | 0 mm | - | - | - |
| 1777856538 | 11.67° C | 62% | 1019 hPa | 0 mm | - | - | - |
| 1777855632 | 11.67° C | 60% | 1019.1 hPa | 0 mm | - | - | - |
| 1777854736 | 11.67° C | 60% | 1019.2 hPa | 0 mm | - | - | - |
* Rain latest hour (hover to see other rain measurements)
** Current wind speed in m/s (hover to see current wind gust speed)